This is the latest recevied weather packets stored in our database for station/object W4MLN-3. If no packets are shown the sender has not sent any weather packets the latest 10 day(s).
| Time | Temp. | Humidity | Pressure | Rain* | Wind** | Luminosity | Snow |
|---|---|---|---|---|---|---|---|
| 1777497903 | 19.44° C | 66% | 1009.9 hPa | 0 mm | - | - | - |
| 1777497625 | 20° C | 66% | 1010 hPa | 0 mm | - | - | - |
| 1777497325 | 20° C | 64% | 1009.8 hPa | 0 mm | - | - | - |
| 1777497003 | 20° C | 64% | 1009.9 hPa | 0 mm | - | - | - |
| 1777496724 | 20° C | 64% | 1009.7 hPa | 0 mm | - | - | - |
| 1777496403 | 20° C | 63% | 1009.8 hPa | 0 mm | - | - | - |
| 1777496103 | 20° C | 65% | 1009.8 hPa | 0 mm | - | - | - |
| 1777495803 | 20° C | 67% | 1009.8 hPa | 0 mm | - | - | - |
| 1777495503 | 20° C | 66% | 1010 hPa | 0 mm | - | - | - |
| 1777495203 | 20° C | 67% | 1009.8 hPa | 0 mm | - | - | - |
| 1777494903 | 20° C | 66% | 1009.9 hPa | 0 mm | - | - | - |
| 1777494324 | 20° C | 65% | 1010 hPa | 0 mm | - | - | - |
| 1777494003 | 20° C | 65% | 1009.7 hPa | 0 mm | - | - | - |
| 1777493724 | 20° C | 65% | 1010 hPa | 0 mm | - | - | - |
| 1777493404 | 20° C | 64% | 1010.3 hPa | 0 mm | - | - | - |
| 1777493104 | 20° C | 66% | 1010.2 hPa | 0 mm | - | - | - |
| 1777492803 | 20° C | 65% | 1010.2 hPa | 0 mm | - | - | - |
| 1777492503 | 20° C | 66% | 1010.1 hPa | 0 mm | - | - | - |
| 1777492203 | 19.44° C | 69% | 1010.1 hPa | 0 mm | - | - | - |
| 1777491925 | 19.44° C | 69% | 1010.3 hPa | 0 mm | - | - | - |
| 1777491604 | 18.89° C | 70% | 1010.5 hPa | 0 mm | - | - | - |
| 1777491303 | 18.89° C | 69% | 1010.6 hPa | 0 mm | - | - | - |
| 1777491004 | 18.89° C | 70% | 1010.6 hPa | 0 mm | - | - | - |
| 1777490704 | 18.89° C | 70% | 1010.7 hPa | 0 mm | - | - | - |
| 1777490404 | 18.89° C | 71% | 1010.8 hPa | 0 mm | - | - | - |
* Rain latest hour (hover to see other rain measurements)
** Current wind speed in m/s (hover to see current wind gust speed)